Dewpoint
15 18 14 7 11 11 11 10 9 10 10 10 17 17 18 16 18 20 23 26 23 24 22 22 34 37 43 49 50 52 54 56 56 59 61 63 66 66 66 65 66 68 66 67
11 12 14 16 13 9 9 10 10 12 11 12 11 16 16 14 15 16 14 22 22 23 19 21 32 44 46 49 53 53 55 57 57 53 54 60 63 67 66 65 65 66 67 67
13 13 12 10 10 12 13 10 10 7 8 10 13 14 14 11 10 14 13 12 20 19 17 27 39 44 50 51 56 55 56 57 58 57 55 62 65 64 63 63 64 65 66 66
8 14 12 11 10 9 9 10 12 10 9 7 11 8 12 11 10 12 12 11 17 24 29 34 39 42 48 53 55 57 58 59 58 60 59 63 62 61 61 62 62 63 64 64
0 1 5 8 12 13 13 14 12 15 15 14 13 13 14 12 11 11 12 13 20 28 35 36 37 41 46 53 55 57 58 59 60 61 62 63 62 62 62 61 61 62 62 62
-4 2 4 4 7 12 16 14 15 17 18 14 15 13 12 11 9 15 16 22 28 37 37 37 40 44 45 55 56 58 56 56 59 60 61 63 62 61 60 61 61 61 61 62
-6 1 3 3 7 18 16 15 13 19 18 17 16 15 16 16 16 20 17 25 36 37 39 39 39 41 44 49 53 53 53 53 59 60 61 62 62 62 61 62 61 61 61 62
-8 -1 3 21 23 24 22 24 18 9 12 15 17 17 16 18 17 27 23 34 35 37 39 39 39 41 44 46 49 52 51 53 57 59 60 61 62 62 62 62 61 60 61 61
4 3 5 5 12 19 27 24 26 24 20 16 20 19 21 22 20 30 32 34 35 37 38 37 39 41 43 44 49 52 51 51 55 57 59 59 61 62 62 62 61 61 62 60
7 7 6 5 5 13 23 26 26 27 20 14 14 16 22 25 24 30 31 32 34 34 33 33 35 39 41 44 48 52 51 51 52 55 58 59 60 61 62 62 61 61 62 61
9 12 12 12 3 4 23 24 23 27 31 17 16 14 26 32 36 30 28 24 22 22 23 24 31 37 40 45 47 49 50 50 51 53 56 59 59 60 61 61 61 61 62 61
10 18 14 10 8 16 16 32 34 24 25 24 22 19 28 31 37 36 18 17 21 23 22 22 21 34 37 42 45 47 50 49 50 51 53 57 59 60 60 61 61 61 61 61
20 24 19 15 13 17 24 23 24 30 31 25 25 23 34 34 34 27 21 18 17 21 18 20 21 19 34 40 47 46 48 48 49 49 51 55 58 59 59 60 60 61 61 61
31 18 13 11 11 23 15 15 14 25 23 21 20 26 36 38 37 35 29 15 16 18 13 18 23 24 43 46 46 46 48 48 48 48 49 51 57 58 58 60 60 60 60 59
30 18 13 12 14 8 3 3 4 8 21 19 19 21 29 34 34 36 34 9 8 11 14 16 23 41 42 43 45 45 46 47 46 46 48 49 52 58 59 60 59 59 59 58
28 26 28 25 18 10 10 11 5 1 8 13 14 17 19 26 25 20 11 10 14 18 18 21 38 40 41 42 42 43 44 44 45 46 46 48 49 55 58 59 58 58 58 57
22 21 19 16 13 13 11 7 5 -1 2 6 10 14 17 13 20 27 27 26 25 23 32 38 40 40 41 41 41 41 41 42 43 43 44 45 46 51 57 58 58 57 57 55
23 24 21 18 17 11 12 21 17 5 5 6 5 7 20 30 30 32 38 38 39 39 39 39 38 38 39 39 39 39 39 40 40 41 42 41 42 45 54 58 57 55 51 48
24 26 22 19 13 12 12 26 19 16 13 29 30 31 32 32 31 34 38 37 36 36 36 35 35 36 36 35 35 36 37 38 38 37 37 38 39 41 46 52 53 49 45 42
22 27 29 20 19 12 28 29 29 24 17 37 34 34 34 34 30 34 38 38 37 35 34 33 33 34 33 32 32 32 34 35 34 34 35 37 38 39 43 50 48 45 41 38
24 25 24 25 22 25 31 31 28 23 27 37 35 35 35 33 35 37 36 34 35 34 31 31 31 31 31 30 29 30 30 32 32 33 34 36 37 39 42 47 43 40 37 35
25 23 22 23 20 17 33 28 26 30 35 35 35 36 37 36 34 32 31 30 30 29 28 28 28 28 29 28 28 26 28 30 31 32 33 35 36 38 46 42 40 37 35 33
24 29 27 28 26 34 34 33 35 35 34 34 36 37 33 31 30 30 28 28 28 27 26 26 26 27 27 26 25 25 26 28 30 31 32 34 35 35 37 38 37 35 34 33
29 35 30 29 30 28 34 35 36 36 35 36 37 34 32 30 29 28 27 27 26 26 25 25 25 24 25 25 24 25 25 28 30 31 31 33 33 32 32 33 35 35 33 32
32 33 28 30 32 28 30 36 35 36 35 32 30 31 29 29 28 28 27 26 25 25 24 23 23 23 23 23 24 24 25 28 29 30 29 30 30 30 28 28 29 32 32 32
28 29 28 27 33 32 32 35 31 30 29 29 27 28 28 28 27 26 26 25 25 25 24 23 22 22 24 24 23 24 25 28 28 28 28 28 28 28 28 26 26 29 29 30
Lifted_Index
8 7 6 6 6 6 5 4 4 4 4 3 3 4 4 3 2 2 2 2 3 4 5 6 6 6 5 4 3 2 2 1 1 1 -1 -2 -4 -4 -4 -4 -4 -6 -6 -6
7 7 6 5 5 5 5 4 4 4 3 3 3 5 5 4 4 3 3 2 2 3 4 5 5 5 4 3 2 1 1 0 0 1 0 -2 -3 -4 -4 -3 -4 -5 -6 -6
7 6 5 5 4 4 4 4 4 3 3 2 3 4 5 5 5 4 3 3 2 2 2 3 4 4 3 2 1 -0 -1 -1 -1 -0 -0 -1 -3 -3 -3 -3 -4 -5 -6 -6
6 6 5 4 4 3 4 3 2 2 2 2 3 4 5 5 5 4 4 3 2 1 1 1 2 3 2 1 0 -1 -1 -2 -2 -2 -2 -2 -2 -2 -2 -2 -3 -4 -5 -5
7 6 5 4 3 3 3 2 1 1 1 2 3 3 4 4 4 3 3 2 1 -0 -0 0 1 2 2 1 0 -1 -1 -2 -2 -2 -2 -2 -2 -2 -1 -1 -2 -3 -4 -5
7 6 5 4 3 2 1 1 1 0 1 2 2 2 3 3 3 2 1 1 -0 -1 -0 0 0 0 0 -0 -0 -1 -1 -1 -2 -2 -2 -2 -2 -1 -1 -1 -2 -3 -4 -4
5 5 4 2 1 0 -0 0 -0 -0 0 1 1 2 3 3 2 1 0 -0 -1 -1 -0 -0 -1 -0 -0 -0 -0 -0 -0 -1 -1 -1 -1 -1 -1 -1 -1 -2 -3 -3 -3 -4
4 4 3 1 0 -1 -1 -0 -1 -1 -0 0 1 1 2 2 1 0 -0 -1 -1 -1 -1 -1 -1 -0 -0 0 0 0 0 -0 -1 -1 -0 -1 -1 -1 -1 -2 -3 -3 -3 -3
4 3 3 2 1 -0 -0 -1 -1 -1 -0 -0 0 1 1 1 0 -0 -1 -1 -1 -1 -1 -1 -0 -0 -0 0 0 0 1 1 0 0 0 -0 -1 -1 -2 -2 -3 -3 -3 -3
3 2 2 2 1 1 -0 -0 -0 -0 -1 -0 0 0 -0 -0 -0 -1 -1 -0 -0 0 1 1 1 0 0 0 0 0 1 1 1 1 0 0 -0 -1 -1 -2 -2 -3 -3 -3
1 1 1 1 1 0 -0 -0 -0 -0 -0 -0 -0 -0 -0 -0 0 0 0 1 2 2 3 3 2 1 0 0 0 1 1 2 2 2 1 0 0 -0 -1 -1 -2 -3 -3 -3
0 0 0 0 0 -0 -0 0 0 0 0 -0 -0 -0 0 0 1 1 2 3 3 4 4 4 3 2 1 1 1 1 2 3 3 3 2 1 1 1 -0 -1 -2 -2 -3 -3
-0 -0 0 0 -0 -0 0 0 0 0 1 1 1 0 0 0 1 1 2 3 4 4 4 4 3 2 1 1 1 1 2 4 4 4 4 2 1 1 1 -0 -1 -2 -2 -2
-1 -0 0 1 0 0 0 0 0 0 1 2 2 1 1 1 1 1 2 3 4 4 4 3 2 2 1 0 1 1 3 4 5 5 5 3 2 1 1 0 -1 -1 -1 -2
-0 -0 0 1 0 0 0 0 0 0 1 2 2 2 2 2 2 1 1 2 3 3 3 2 1 0 -0 1 2 3 4 5 5 6 5 4 2 2 1 1 0 -0 -0 -1
-0 0 0 0 0 0 0 0 0 0 1 1 2 2 2 2 1 1 1 1 2 2 1 1 -0 -0 0 2 3 4 5 5 6 6 6 5 3 2 1 1 1 1 0 0
0 0 0 0 0 0 0 0 -0 0 0 0 1 1 1 1 1 0 0 1 1 1 0 -0 -0 0 2 3 4 5 5 6 7 7 7 6 4 3 2 1 1 1 1 1
0 0 0 0 0 0 0 -0 -1 -0 -0 -0 0 1 1 1 1 0 0 0 0 0 -0 -0 1 2 3 4 5 5 5 6 7 7 7 6 5 3 2 2 2 2 1 1
1 0 0 0 0 0 -0 -0 -1 -1 -1 -1 -0 0 1 1 1 1 1 1 1 1 1 2 2 3 4 5 5 5 6 6 7 7 7 6 6 4 3 2 2 1 1 1
1 1 0 0 0 0 0 0 -0 -0 -0 -0 0 1 1 2 2 2 2 3 2 2 3 3 3 4 4 4 5 5 6 6 7 7 7 6 6 4 3 2 1 0 1 1
1 1 1 0 0 1 1 1 1 0 1 1 1 2 2 2 2 3 3 3 3 3 3 3 3 4 4 5 5 5 5 6 8 8 7 6 6 5 4 2 1 0 1 1
1 1 1 1 1 1 2 2 2 2 2 2 2 2 3 3 3 3 4 4 4 4 4 4 4 4 5 6 5 4 5 6 8 8 7 6 6 6 5 3 1 0 1 1
1 1 1 1 2 2 3 3 4 4 4 3 3 3 3 3 4 4 4 5 5 5 5 5 5 5 6 6 6 5 6 6 7 7 7 7 7 7 6 4 2 1 1 1
2 2 2 2 2 3 3 4 5 5 5 5 5 5 5 4 4 5 5 5 6 6 6 6 6 5 6 7 7 7 7 7 6 6 6 7 7 8 7 6 4 2 2 2
2 2 2 2 3 3 4 5 5 5 6 6 6 6 6 6 5 6 6 6 7 7 7 7 7 6 6 7 9 10 10 9 7 6 7 8 8 9 9 8 7 5 4 3
2 3 3 3 3 3 4 5 5 6 6 6 6 6 7 7 7 7 7 7 8 7 7 7 7 7 7 8 10 11 11 10 8 7 7 8 9 10 10 10 9 8 6 4